Location: Unspecified
(0.0000°N, 0.0000°E)
Time: 03:51:11
(UTC+00:00)

deb r/b Ablestar - Pass Details

Date: 22 February 2026
Orbit: 903 x 2194 km, 67.6° (Epoch: 11 March)

Event Time Altitude Azimuth Distance (km) Brightness Sun altitude
Rises 19:33:11 0° 223° (SW) 4,581 ? -19.6°
Reaches altitude 10° 19:37:08 10° 236° (SW) 3,369 ? -20.6°
Maximum altitude 19:42:55 22° 284° (WNW) 2,255 ? -22.0°
Drops below altitude 10° 19:47:51 10° 334° (NNW) 2,807 ? -23.2°
Sets 19:50:50 0° 350° (N) 3,642 ? -24.0°
